User: anonymous   Login
Location: Unspecified
(0.0000°N, 0.0000°E)
Time: 06:48:15
(UTC+00:00)
Language:

KUIPER-00146 - Orbit

View from above orbital plane
View from above orbital plane
View from above satellite
View from above satellite

Ground track
Ground track

The orbit is defined by the following mean orbital elements,

1 65788U          26145.46471104 +.00000000 +00000-0 +18148-3 0 00007
2 65788  51.9010  63.5982 0000947 103.2737 256.8331 14.79927363    07
Epoch (UTC): 25 May 2026 11:09:11
Eccentricity: 0.0000947
inclination: 51.9010°
perigee height: 629 km
apogee height: 630 km
right ascension of ascending node: 63.5982°
argument of perigee: 103.2737°
revolutions per day: 14.79927363
mean anomaly at epoch: 256.8331°

The dashed part of the orbit path shows where the satellite is in the earth's shadow,  

DLR